Regional Weather Roundup
Issued by NWS

Home | Current Version | Previous Version | Text Only | Print | Product List | Glossary On
Versions: 1 2 3 4 5 6 7 8 9 10 11 12 13 14 15 16 17 18 19 20 21 22 23 24 25 26 27 28 29 30 31 32 33 34 35 36 37 38 39 40 41 42 43 44 45 46 47 48 49 50
000
ASUS43 KTOP 260159
RWRKS

WEATHER ROUNDUP FOR KANSAS
NATIONAL WEATHER SERVICE GOODLAND KS
800 PM CST THU DEC 25 2014

NOTE:  "FAIR" INDICATES FEW OR NO CLOUDS BELOW 12,000 FEET WITH NO
SIGNIFICANT WEATHER AND/OR OBSTRUCTIONS TO VISIBILITY.

KSZ001>006-013>018-027>032-041>047-260300-
NORTHWEST KANSAS

CITY           SKY/WX    TMP DP  RH WIND       PRES   REMARKS
GOODLAND       PTCLDY    29  26  89 N14       29.65R WCI  18
HAYS           MOCLDY    37  21  52 NW8       29.60R
HILL CITY      PTCLDY    35  24  64 N15       29.63R WCI  25
RUSSELL        CLOUDY    45  27  49 SW9       29.59R
$$

KSZ061>065-074>080-084>089-260300-
SOUTHWEST KANSAS

CITY           SKY/WX    TMP DP  RH WIND       PRES   REMARKS
DODGE CITY     MOCLDY    46  22  38 S12       29.60R
ELKHART          N/A     48  16  28 SW12        N/A
GARDEN CITY    PTCLDY    38  26  62 N16       29.61R WCI  29
GREAT BEND     CLOUDY    46  27  46 S24       29.58R
LIBERAL        PTCLDY    41  18  38 S14       29.64R
$$

KSZ066>073-081>083-090>101-260300-
SOUTHEAST KANSAS

CITY           SKY/WX    TMP DP  RH WIND       PRES   REMARKS
CHANUTE        CLOUDY    50  31  48 S18       29.79R
COFFEYVILLE    CLOUDY    52  30  43 S24G30    29.81R
HUTCHINSON     CLOUDY    50  29  44 S20G26    29.67R
NEWTON         CLOUDY    50  27  40 S28G36    29.69S
PARSONS        CLOUDY    51  31  46 S12G25    29.81R
WICHITA INTL   CLOUDY    51  28  41 S20       29.70R
WICHITA JABRA  CLOUDY    51  26  37 S20G33    29.71R
WINFIELD       CLOUDY    51  29  42 S18       29.75R
$$

KSZ007>012-019>026-033>040-048>060-102>105-260300-
NORTHEAST KANSAS

CITY           SKY/WX    TMP DP  RH WIND       PRES   REMARKS
CONCORDIA      PTCLDY    38  30  73 E3        29.63R
EMPORIA        CLOUDY    50  28  42 S16G24    29.72R
LAWRENCE       CLOUDY    50  31  48 S13       29.75R
MANHATTAN      PTCLDY    50  29  44 S10G20    29.68R
OLATHE IND     CLOUDY    49  31  49 S16       29.76R
OLATHE EXE     CLOUDY    50  30  46 S17G25    29.76R
SALINA         MOCLDY    49  30  48 S15G25    29.63R
TOPEKA BILLARD MOCLDY    50  31  48 S10       29.72R
TOPEKA FORBES  MOCLDY    50  30  46 S10       29.72R
$$


USA.gov is the U.S. government's official web portal to all federal, state and local government web resources and services.